www.pogodaiklimat.ru

Погода и климат >> Архив погоды >> Венгрия >> Szentgotthard


ПОГОДА в Szentgotthard

  • Прогноз погоды в Szentgotthard
  • Монитор погоды в Szentgotthard
  • Климат города

АРХИВ ПОГОДЫ в Szentgotthard

Время (UTC), дата Ветер
(напр.,м/с)
 
Видим.   Явления Облачность Т
(С)
Тd
(С)
f
(%)
Тe
(С)
Тes
(С)
Комфортность P
(гПа)
Po
(гПа)
Тmin
(С)
Tmax
(С)
R
(мм)
R24
(мм)
S
(см)
04 17.10 штиль 0 н/о н/о +8.9 +8.6 98 +8 +8 1021.8 983.8
05 17.10 штиль 0 н/о н/о +8.7 +8.6 99 +8 +8 1021.8 983.8
06 17.10 ЮЗ 1 н/о н/о +8.7 +8.7 100 +8 +8 1022.1 984.1 +8.4
08 17.10 Ю 1 н/о н/о +13.2 +11.3 88 +13 +13 1022.0 984.6
07 17.10 штиль 0 н/о н/о +9.8 +9.7 99 +9 +9 1022.2 984.3
09 17.10 Ю 2 н/о н/о +16.6 +12.4 76 +17 +17 1021.5 984.5
10 17.10 Ю 1 н/о н/о +16.7 +11.4 71 +18 +18 1021.5 984.5
11 17.10 Ю 1 н/о н/о +18.1 +12.1 68 +19 +19 1020.8 984.0
12 17.10 штиль 0 н/о н/о +18.9 +11.7 63 +20 +20 1020.1 983.5
14 17.10 штиль 0 н/о н/о +19.8 +11.8 60 +21 +21 комфорт 1019.5 983.0
13 17.10 СВ 1 н/о н/о +19.1 +11.9 63 +21 +21 комфорт 1019.9 983.3
15 17.10 штиль 0 н/о н/о +18.6 +12.1 66 +19 +19 1019.6 982.9
16 17.10 штиль 0 н/о н/о +16.8 +12.9 78 +17 +17 1019.7 982.8
17 17.10 СЗ 1 н/о н/о +15.7 +12.5 81 +16 +16 1020.0 983.0
18 17.10 СЗ 1 н/о н/о +15.2 +12.5 84 +16 +16 1020.4 983.3 +19.8
20 17.10 СЗ 1 н/о н/о +14.3 +12.2 87 +15 +15 1020.6 983.4
19 17.10 СЗ 2 н/о н/о +14.6 +12.5 87 +14 +14 1020.5 983.3
21 17.10 СЗ 2 н/о н/о +13.7 +12.4 92 +13 +13 1020.7 983.4
22 17.10 СЗ 1 н/о н/о +12.9 +12.6 98 +13 +13 1020.7 983.3
23 17.10 СЗ 2 н/о н/о +12.9 +12.6 98 +12 +12 1020.4 983.0
00 18.10 СЗ 2 н/о н/о +12.7 +12.5 99 +12 +12 1020.2 982.8 0.2
02 18.10 штиль 0 н/о н/о +12.5 +12.3 99 +12 +12 1019.6 982.2
01 18.10 СЗ 1 н/о н/о +12.6 +12.4 99 +12 +12 1020.1 982.7
03 18.10 СЗ 1 н/о н/о +12.4 +12.2 99 +12 +12 1019.3 981.9
04 18.10 СЗ 1 н/о н/о +12.1 +12.1 100 +12 +12 1019.2 981.7
05 18.10 штиль 0 н/о н/о +12.0 +11.8 99 +11 +11 1019.0 981.5
06 18.10 СЗ 1 н/о н/о +12.0 +11.8 99 +12 +12 1019.2 981.7 +11.9 0.2
08 18.10 штиль 0 н/о н/о +13.1 +12.6 97 +13 +13 1019.8 982.4
07 18.10 СЗ 1 н/о н/о +12.3 +12.1 99 +12 +12 1019.5 982.0
09 18.10 штиль 0 н/о н/о +15.6 +11.4 76 +15 +15 1019.3 982.3
10 18.10 штиль 0 н/о н/о +16.1 +11.5 74 +16 +16 1019.5 982.5
11 18.10 штиль 0 н/о н/о +17.2 +10.3 64 +17 +17 1018.8 982.0
12 18.10 СЗ 1 н/о н/о +18.5 +10.8 61 +20 +20 1018.1 981.5
14 18.10 н/о н/о +19.4 +9.9 54 1017.5 981.0
13 18.10 С 1 н/о н/о +19.2 +9.4 53 +21 +21 комфорт 1017.5 981.0
15 18.10 В 2 н/о н/о +18.6 +9.4 55 +20 +20 1017.5 980.9
16 18.10 В 1 н/о н/о +16.7 +9.9 64 +18 +18 1017.6 980.8
17 18.10 штиль 0 н/о н/о +14.7 +9.9 73 +14 +14 1018.4 981.3
18 18.10 штиль 0 н/о н/о +14.3 +10.1 76 +14 +14 1018.9 981.7 +19.5
20 18.10 С 1 н/о н/о +12.5 +10.0 85 +12 +12 1020.1 982.6
19 18.10 С 1 н/о н/о +12.8 +9.6 81 +13 +13 1019.5 982.1
21 18.10 СЗ 2 н/о н/о +11.7 +9.6 87 +11 +11 1020.6 983.0
22 18.10 СЗ 1 н/о н/о +10.8 +9.2 90 +10 +10 1020.8 983.1
23 18.10 СЗ 1 н/о н/о +10.3 +9.2 93 +10 +10 1020.9 983.1
00 19.10 СЗ 1 н/о н/о +9.8 +8.9 94 +9 +9 1020.9 983.1
02 19.10 СЗ 1 н/о н/о +9.5 +9.2 98 +9 +9 1020.7 982.8
01 19.10 СЗ 2 н/о н/о +10.2 +9.3 94 +9 +9 1020.9 983.1
03 19.10 СЗ 1 н/о н/о +10.3 +9.5 95 +10 +10 1020.6 982.8
04 19.10 СЗ 1 н/о н/о +10.5 +9.7 95 +10 +10 1020.5 982.8
05 19.10 штиль 0 н/о н/о +10.3 +9.7 96 +9 +9 1020.8 983.0
06 19.10 С 1 н/о н/о +11.0 +10.5 97 +11 +11 1020.9 983.2 +9.4
08 19.10 СЗ 1 н/о н/о +13.3 +11.4 88 +13 +13 1021.6 984.2
07 19.10 З 1 н/о н/о +11.3 +10.7 96 +11 +11 1021.6 983.9
09 19.10 СЗ 1 н/о н/о +15.8 +11.6 76 +17 +17 1021.5 984.4
10 19.10 С 1 н/о н/о +17.6 +11.4 67 +19 +19 1021.4 984.5
11 19.10 С 2 н/о н/о +18.9 +9.7 55 +20 +20 1020.8 984.1
12 19.10 СВ 2 н/о н/о +19.2 +10.2 56 +21 +21 комфорт 1020.4 983.8
14 19.10 СВ 2 н/о н/о +19.1 +8.4 50 +20 +20 1020.2 983.6
13 19.10 С 2 н/о н/о +19.4 +8.4 49 +21 +21 комфорт 1020.2 983.6
15 19.10 СВ 2 н/о н/о +18.2 +9.0 55 +19 +19 1020.4 983.7
16 19.10 В 1 н/о н/о +16.3 +9.5 64 +17 +17 1020.9 983.9
17 19.10 СВ 1 н/о н/о +13.6 +9.1 74 +14 +14 1021.8 984.4
18 19.10 В 1 н/о н/о +12.8 +9.4 80 +13 +13 1022.6 985.1 +19.5
20 19.10 С 1 н/о н/о +12.0 +9.4 84 +12 +12 1023.0 985.4
19 19.10 С 2 н/о н/о +12.3 +9.3 82 +11 +11 1022.9 985.3
21 19.10 З 2 н/о н/о +10.5 +8.8 89 +9 +9 1023.4 985.6
22 19.10 С 1 н/о н/о +10.5 +8.9 90 +10 +10 1023.5 985.7
23 19.10 СЗ 2 н/о н/о +9.6 +8.4 92 +8 +8 1023.9 985.9
00 20.10 СЗ 2 н/о н/о +9.3 +8.2 93 +7 +7 1024.2 986.2
02 20.10 С 2 н/о н/о +9.3 +8.2 93 +7 +7 1024.2 986.2
01 20.10 СЗ 2 н/о н/о +9.1 +8.0 93 +7 +7 1024.5 986.4
03 20.10 СЗ 2 н/о н/о +9.4 +8.0 91 +8 +8 1024.1 986.1
04 20.10 СЗ 2 н/о н/о +8.5 +7.7 95 +6 +6 1024.6 986.5
05 20.10 СЗ 1 н/о н/о +8.1 +7.5 96 +7 +7 1025.1 986.9
06 20.10 СЗ 1 н/о н/о +7.9 +7.5 97 +7 +7 1025.5 987.2 +7.9
08 20.10 штиль 0 н/о н/о +11.4 +8.8 84 +11 +11 1026.0 988.2
07 20.10 штиль 0 н/о н/о +8.3 +7.7 96 +7 +7 1025.9 987.7
09 20.10 В 2 н/о н/о +13.3 +9.2 76 +13 +13 1026.3 988.7
10 20.10 СВ 2 н/о н/о +15.0 +9.6 70 +15 +15 1026.4 989.0
11 20.10 СВ 1 н/о н/о +16.5 +9.2 62 +17 +17 1025.9 988.7
12 20.10 СВ 2 н/о н/о +17.4 +8.8 57 +18 +18 1025.2 988.2
14 20.10 ЮВ 1 н/о н/о +17.7 +8.6 55 +19 +19 1024.1 987.2
13 20.10 СВ 2 н/о н/о +17.5 +8.4 55 +18 +18 1024.6 987.6
15 20.10 В 1 н/о н/о +16.9 +8.1 56 +18 +18 1024.1 987.1
16 20.10 В 1 н/о н/о +15.7 +8.2 61 +16 +16 1024.3 987.1
17 20.10 В 1 н/о н/о +13.2 +8.1 71 +13 +13 1024.8 987.3
18 20.10 штиль 0 н/о н/о +12.1 +8.6 79 +12 +12 1025.4 987.7 +18.1
20 20.10 СВ 1 н/о н/о +10.5 +8.6 88 +10 +10 1025.8 987.9
19 20.10 штиль 0 н/о н/о +10.5 +8.3 86 +10 +10 1025.5 987.6
21 20.10 штиль 0 н/о н/о +10.7 +8.5 86 +10 +10 1026.0 988.1
22 20.10 С 1 н/о н/о +9.9 +8.3 90 +9 +9 1026.0 988.0
23 20.10 С 1 н/о н/о +10.3 +8.1 86 +10 +10 1025.7 987.8
00 21.10 СВ 2 н/о н/о +10.6 +7.5 81 +9 +9 1025.5 987.6
02 21.10 СВ 2 н/о н/о +9.5 +4.1 69 +8 +8 1025.5 987.5
01 21.10 С 2 н/о н/о +10.4 +4.8 68 +9 +9 1025.4 987.5
03 21.10 С 2 н/о н/о +9.2 +2.8 64 +8 +8 1025.5 987.4
04 21.10 СВ 4
{11}
н/о н/о +8.5 +0.2 56 +6 +6 1026.2 988.0
05 21.10 С 2
{11}
н/о н/о +7.9 +0.6 60 +6 +6 1026.5 988.2
06 21.10 С 2 н/о н/о +7.7 -0.0 58 +6 +6 1026.5 988.2 +7.7
08 21.10 С 3
{8}
н/о н/о +9.5 +0.9 55 +8 +8 1026.2 988.1
07 21.10 С 2
{8}
н/о н/о +8.7 +0.4 56 +7 +7 1026.4 988.2
09 21.10 С 4 н/о н/о +10.7 +1.5 53 +9 +9 1026.1 988.2
10 21.10 С 4
{9}
н/о н/о +10.5 +2.4 57 +8 +8 1026.1 988.2
11 21.10 С 5
{10}
н/о н/о +10.3 +3.1 61 +8 +8 1026.2 988.2
12 21.10 С 4
{10}
н/о н/о +10.8 +3.1 59 +9 +9 1025.7 987.8
14 21.10 СВ 2
{9}
н/о н/о +10.0 +3.3 63 +9 +9 1025.7 987.7
13 21.10 С 4
{11}
н/о н/о +10.1 +2.7 60 +8 +8 1025.6 987.6
15 21.10 С 3 н/о н/о +9.9 +3.4 64 +8 +8 1025.6 987.6
16 21.10 С 3
{7}
н/о н/о +9.4 +3.6 67 +7 +7 1025.8 987.7
17 21.10 С 2 н/о н/о +8.4 +3.5 71 +7 +7 1026.5 988.3
18 21.10 С 1 н/о н/о +7.7 +3.6 75 +7 +7 1026.9 988.6 +11.1
20 21.10 С 1 н/о н/о +6.6 +3.6 81 +6 +6 1027.4 988.9
19 21.10 С 2 н/о н/о +6.7 +3.5 80 +5 +5 1027.3 988.8
21 21.10 С 1 н/о н/о +5.6 +3.8 88 +4 +4 1027.9 989.2
22 21.10 штиль 0 н/о н/о +7.1 +4.2 82 +6 +6 1027.4 989.0
23 21.10 штиль 0 н/о н/о +7.4 +4.7 83 +7 +7 1027.3 988.9
00 22.10 С 1 н/о н/о +7.6 +4.6 81 +7 +7 1026.8 988.5
02 22.10 штиль 0 н/о н/о +7.1 +4.6 84 +6 +6 1026.4 988.0
01 22.10 С 1 н/о н/о +7.7 +4.5 80 +7 +7 1026.7 988.4
03 22.10 С 1 н/о н/о +7.7 +4.8 82 +7 +7 1026.1 987.8
04 22.10 С 1 н/о н/о +7.4 +4.9 84 +7 +7 1026.4 988.0
05 22.10 штиль 0 н/о н/о +7.6 +4.9 83 +7 +7 1026.2 987.9
06 22.10 СВ 1 н/о н/о +8.0 +4.8 80 +7 +7 1026.3 988.0 +5.3
08 22.10 СВ 1 н/о н/о +9.3 +4.9 74 +9 +9 1027.2 989.1
07 22.10 СВ 1 н/о н/о +8.2 +4.8 79 +8 +8 1026.9 988.6
09 22.10 СВ 1 н/о н/о +10.0 +5.0 71 +10 +10 1027.3 989.3
10 22.10 СВ 2 н/о н/о +10.8 +4.7 66 +10 +10 1027.4 989.5
11 22.10 СВ 3 н/о н/о +11.4 +4.8 64 +10 +10 1027.1 989.2
12 22.10 С 2 н/о н/о +13.0 +4.9 58 +12 +12 1025.8 988.2
14 22.10 СВ 2 н/о н/о +13.4 +4.6 55 +13 +13 1024.7 987.2
13 22.10 СВ 1 н/о н/о +13.6 +5.0 56 +14 +14 1025.1 987.6
15 22.10 СВ 1 н/о н/о +13.1 +4.8 57 +13 +13 1024.7 987.2
16 22.10 СВ 1 н/о н/о +11.4 +4.8 64 +11 +11 1025.3 987.5
17 22.10 СВ 1 н/о н/о +8.9 +4.9 76 +8 +8 1026.0 987.9
18 22.10 СВ 1 н/о н/о +8.1 +4.9 80 +7 +7 1026.6 988.3 +13.7
20 22.10 СЗ 1 н/о н/о +6.8 +4.8 87 +6 +6 1027.2 988.7
19 22.10 штиль 0 н/о н/о +7.4 +4.5 82 +7 +7 1026.9 988.5
21 22.10 СЗ 2 н/о н/о +7.7 +5.0 83 +6 +6 1027.5 989.1
22 22.10 СЗ 2 н/о н/о +7.3 +5.3 87 +5 +5 1027.7 989.3
23 22.10 СЗ 1 н/о н/о +7.2 +5.2 87 +6 +6 1027.3 988.9
00 23.10 СЗ 2 н/о н/о +7.1 +5.4 89 +5 +5 1026.7 988.3
02 23.10 СЗ 1 н/о н/о +6.5 +5.3 92 +5 +5 1026.4 987.9
01 23.10 СЗ 1 н/о н/о +7.5 +5.6 88 +7 +7 1026.2 987.9
03 23.10 СЗ 1 н/о н/о +6.4 +5.2 92 +5 +5 1026.3 987.8
04 23.10 З 1 н/о н/о +6.2 +5.3 94 +5 +5 1026.2 987.7
05 23.10 З 1 н/о н/о +5.0 +4.4 96 +4 +4 1026.4 987.7
06 23.10 З 1 н/о н/о +5.0 +4.7 98 +3 +3 1026.5 987.8 +4.9
08 23.10 ЮВ 1 н/о н/о +10.5 +6.8 78 +10 +10 1025.3 987.4
07 23.10 штиль 0 н/о н/о +6.0 +5.6 97 +5 +5 1026.3 987.8
09 23.10 В 2 н/о н/о +11.1 +6.6 74 +10 +10 1024.9 987.1
10 23.10 Ю 2 н/о н/о +12.9 +6.9 67 +12 +12 1024.0 986.5
11 23.10 Ю 3
{7}
н/о н/о +14.4 +6.5 59 +14 +14 1022.7 985.4
12 23.10 Ю 3 н/о н/о +14.4 +6.3 58 +14 +14 1021.4 984.1
14 23.10 Ю 3 н/о н/о +14.6 +6.2 57 +14 +14 1019.1 982.0
13 23.10 ЮЗ 2 н/о н/о +15.0 +6.3 56 +15 +15 1020.0 982.9
15 23.10 ЮЗ 2 н/о н/о +14.0 +6.4 60 +14 +14 1018.3 981.1
16 23.10 Ю 1 н/о н/о +12.9 +6.0 63 +13 +13 1017.5 980.2
17 23.10 Ю 1 н/о н/о +12.1 +6.2 67 +12 +12 1016.9 979.5
18 23.10 ЮЗ 2 н/о н/о +12.3 +6.6 68 +12 +12 1016.9 979.5 +15.2
20 23.10 З 1 н/о н/о +11.0 +6.6 74 +11 +11 1015.5 978.0
19 23.10 З 1 н/о н/о +11.3 +6.8 74 +11 +11 1016.2 978.7
21 23.10 З 1 н/о н/о +9.2 +5.8 79 +9 +9 1015.3 977.6
22 23.10 ЮЗ 1 н/о н/о +8.3 +5.9 85 +8 +8 1014.7 976.9
23 23.10 штиль 0 н/о н/о +9.2 +5.9 80 +9 +9 1013.6 976.0
00 24.10 штиль 0 н/о н/о +9.0 +5.4 78 +8 +8 1012.8 975.2
02 24.10 СЗ 1 н/о н/о +10.0 +5.4 73 +10 +10 1011.8 974.3
01 24.10 З 1 н/о н/о +9.8 +5.0 72 +9 +9 1012.2 974.7
03 24.10 штиль 0 н/о н/о +9.1 +5.7 79 +8 +8 1011.4 973.8

 

Местоположение метеостанции Szentgotthard (Венгрия): широта 46.92 долгота 16.32 высота над уровнем моря 313 м.

В архиве по умолчанию представлена погода в Szentgotthard за последнюю неделю. Архивные данные за месяц целиком и за предыдущие месяцы, начиная с января 2011 года, Вы можете получить, выбрав интересующий диапазон дат из раскрывающегося списка и нажав кнопку "Ввод!".


*Определитесь, кто Вы:
робот инопланетянин человек

Внимание! Время в таблицах - всемирное. Для получения местного времени необходимо прибавить поправку, которая в Szentgotthard равна 1 ч.

Смотрите также архив погоды в соседних городах и на ближайших метеорологических станциях:

Погода в Kleinzicken (Австрия) (31 км)
Погода в Murska Sobota (Словения) (32 км)
Погода в Bad Gleichenberg (Австрия) (32 км)
Погода в Feldbach (Австрия) (34 км)
Погода в Zalaegerszeg (Венгрия) (37 км)
Погода в Bad Radkersburg (Австрия) (37 км)
Погода в Szombathely (Венгрия) (45 км)
Погода в Bad Tatzmannsdorf (Австрия) (46 км)
Погода в Hartberg (Австрия) (48 км)
Погода в Lassnitzhoehe (Австрия) (59 км)

Пояснения к столбцам:

Ветер - указаны скорость ветра в м/с - средняя за 10 мин, порывы в срок и между сроками (в фигурных скобках) и направление, откуда дует ветер: С - северный, СВ - северо-восточный, В - восточный, ЮВ - юго-восточный, Ю - южный, ЮЗ - юго-западный, З - западный, СЗ - северо-западный.
Видимость - горизонтальная дальность видимости в метрах или километрах. При видимости от 1 до 10 км при отсутствии осадков обычно наблюдается дымка, при ухудшении видимости до 1 км и менее - туман. В сухую погоду видимость может ухудшаться дымом, пылью или мглою.
Явления - указаны атмосферные явления, наблюдавшиеся в срок или в последний час перед сроком; фигурными скобками обозначены явления, наблюдавшиеся между сроками (за 1-3 часа до срока); квадратными скобками обозначены град или гололедные отложения с указанием их диаметра в мм.
Облачность - указаны через наклонную черту общая и нижняя облачность в баллах и высота нижней границы облаков в метрах; квадратными скобками обозначены формы облаков: Ci - перистые, Cs - перисто-слоистые, Cc - перисто-кучевые, Ac - высококучевые, As - высокослоистые, Sc - слоисто-кучевые, Ns - слоисто-дождевые, Cu - кучевые, Cb - кучево-дождевые. Подробнее классификацию облаков см. в Атласе облаков (PDF).
T - Температура воздуха - температура, измеренная на высоте 2 м над землей.
Td - Температура точки росы - температура, при понижении до которой содержащийся в воздухе водяной пар достигнет насыщения.
f - Относительная влажность воздуха - влажноcть воздуха, измеренная на высоте 2 м над землей.
Te - Эффективная температура - температура, которую ощущает одетый по сезону человек в тени. Характеристика душности погоды. При расчете учитывается влияние влажности воздуха и скорости ветра на теплоощущения человека.
Tes - Эффективная температура на солнце - температура, которую ощущает человек, с поправкой на солнечный нагрев. Характеристика знойности погоды. Зависит от высоты солнца над горизонтом, облачности и скорости ветра. Ночью, в пасмурную погоду, а также при ветре 12 м/с и более поправка равна нулю.
P - Атмосферное давление - приведенное к уровню моря атмосферное давление.
Po - Атмосферное давление - измеренное на уровне метеостанции атмосферное давление.
Tmin - Минимальная температура - минимум температуры воздуха на высоте 2 м над землей.
Tmax - Максимальная температура - максимум температуры воздуха на высоте 2 м над землей.
R - Количество осадков - Количество выпавших осадков за период времени, мм. При наведении курсора мыши на число - период времени, за который выпало указанное количество осадков.
R24 - Количество осадков - Количество выпавших осадков за 24 часа, мм.
S - Снежный покров - Высота снежного покрова, см. При наведении курсора мыши на число - состояние снежного покрова и степень покрытия местности в баллах.